User: anonymous   Login
Location: Unspecified
(0.0000°N, 0.0000°E)
Time: 19:56:13
(UTC+00:00)
Language:

GOSAT - Orbit

View from above orbital plane
View from above orbital plane
View from above satellite
View from above satellite

Ground track
Ground track

The orbit data is extracted from the following two-line orbital elements,

1 33492U 09002A   14351.40629272  .00000078  00000-0  22194-4 0  2099
2 33492 098.0643 098.0356 0000871 085.1820 274.9460 14.67552011315951
Epoch (UTC): 17 December 2014 09:45:03
Eccentricity: 0.0000871
inclination: 98.0643°
perigee height: 668 km
apogee height: 669 km
right ascension of ascending node: 98.0356°
argument of perigee: 85.1820°
revolutions per day: 14.67552011
mean anomaly at epoch: 274.9460°
orbit number at epoch: 31595

The dashed part of the orbit path shows where the satellite is in the earth's shadow,  

DLR